Location: Dugenta
(41.1333°N, 14.4500°E)
Time: 13:52:55
(UTC+00:00)

COSMOS 2428 - Pass Details

Date: 03 March 2021
Orbit: 845 x 858 km, 70.9° (Epoch: 14 April)

Event Time Altitude Azimuth Distance (km) Brightness Sun altitude
Rises 17:33:40 0° 150° (SSE) 3,391 5.6 -8.0°
Reaches altitude 10° 17:37:27 10° 124° (SE) 2,462 4.6 -8.7°
Maximum altitude 17:40:02 13° 97° (E) 2,236 4.2 -9.2°
Enters shadow 17:42:24 11° 72° (ENE) 2,438 4.5 -9.6°
